• In Latvia
  • List of Countries
  • For 7 days
  • Water Temperature
  • Satellite Maps
  • Weather Map
  • Weather Widgets
  • user-avatar
    Login

    Hourly Weather Liepaja

    Today, 29 June, Thursday

    Time Temperature Precipitation Wind Pressure Humidity
    00:00 +14°C° 0 mm 7 mps 755 mmHg 63%
    01:00 +14°C° 0 mm 7 mps 755 mmHg 66%
    02:00 +13°C° 0 mm 8 mps 754 mmHg 70%
    03:00 +13°C° 0 mm 8 mps 754 mmHg 73%
    04:00 +13°C° 0 mm 8 mps 753 mmHg 76%
    05:00 +15°C° 0.5 mm 8 mps 753 mmHg 78%
    06:00 +15°C° 0.5 mm 8 mps 752 mmHg 81%
    07:00 +16°C° 0.5 mm 8 mps 752 mmHg 83%
    08:00 +16°C° 1.4 mm 8 mps 752 mmHg 86%
    09:00 +17°C° 1.4 mm 7 mps 751 mmHg 89%
    10:00 +17°C° 1.4 mm 7 mps 751 mmHg 92%
    11:00 +18°C° 1 mm 7 mps 750 mmHg 91%
    12:00 +20°C° 1 mm 7 mps 750 mmHg 90%
    13:00 +21°C° 1 mm 7 mps 750 mmHg 90%
    14:00 +21°C° 1 mm 6 mps 749 mmHg 89%
    15:00 +22°C° 1 mm 6 mps 749 mmHg 89%
    16:00 +23°C° 1 mm 6 mps 749 mmHg 89%
    17:00 +23°C° 0.8 mm 6 mps 748 mmHg 90%
    18:00 +22°C° 0.8 mm 6 mps 748 mmHg 91%
    19:00 +22°C° 0.8 mm 5 mps 747 mmHg 93%
    20:00 +21°C° 0.8 mm 6 mps 747 mmHg 94%
    21:00 +21°C° 0.8 mm 6 mps 747 mmHg 94%
    22:00 +20°C° 0.8 mm 6 mps 746 mmHg 95%
    23:00 +20°C° 0.4 mm 6 mps 746 mmHg 96%

    Tomorrow, 30 June, Friday

    Time Temperature Precipitation Wind Pressure Humidity
    00:00 +20°C° 0.4 mm 5 mps 746 mmHg 96%
    01:00 +19°C° 0.4 mm 5 mps 745 mmHg 97%
    02:00 +19°C° 0.6 mm 5 mps 745 mmHg 97%
    03:00 +19°C° 0.6 mm 5 mps 745 mmHg 97%
    04:00 +19°C° 0.6 mm 5 mps 744 mmHg 97%
    05:00 +19°C° 0.5 mm 5 mps 744 mmHg 96%
    06:00 +20°C° 0.5 mm 5 mps 744 mmHg 94%
    07:00 +20°C° 0.5 mm 5 mps 744 mmHg 92%
    08:00 +20°C° 0.1 mm 5 mps 744 mmHg 89%
    09:00 +20°C° 0.1 mm 5 mps 744 mmHg 87%
    10:00 +20°C° 0.1 mm 5 mps 744 mmHg 84%
    11:00 +20°C° 0.1 mm 6 mps 744 mmHg 85%
    12:00 +19°C° 0.1 mm 6 mps 744 mmHg 87%
    13:00 +17°C° 0.1 mm 7 mps 744 mmHg 88%
    14:00 +17°C° 0.6 mm 7 mps 744 mmHg 89%
    15:00 +16°C° 0.6 mm 8 mps 744 mmHg 91%
    16:00 +16°C° 0.6 mm 8 mps 744 mmHg 93%
    17:00 +16°C° 0.7 mm 8 mps 744 mmHg 94%
    18:00 +16°C° 0.7 mm 8 mps 744 mmHg 94%
    19:00 +15°C° 0.7 mm 8 mps 744 mmHg 95%
    20:00 +15°C° 0.4 mm 8 mps 745 mmHg 95%
    21:00 +15°C° 0.4 mm 9 mps 745 mmHg 96%
    22:00 +15°C° 0.4 mm 9 mps 745 mmHg 96%
    23:00 +15°C° 0.5 mm 9 mps 745 mmHg 96%

    Day after tomorrow, 1 July, Saturday

    Time Temperature Precipitation Wind Pressure Humidity
    00:00 +15°C° 0.5 mm 9 mps 745 mmHg 96%
    01:00 +15°C° 0.5 mm 9 mps 745 mmHg 96%
    02:00 +14°C° 0.6 mm 10 mps 746 mmHg 96%
    03:00 +14°C° 0.6 mm 10 mps 746 mmHg 96%
    04:00 +14°C° 0.6 mm 10 mps 746 mmHg 96%
    05:00 +14°C° 0.9 mm 10 mps 746 mmHg 96%
    06:00 +14°C° 0.9 mm 10 mps 746 mmHg 95%
    07:00 +14°C° 0.9 mm 10 mps 746 mmHg 95%
    08:00 +14°C° 0.9 mm 10 mps 747 mmHg 94%
    09:00 +14°C° 0.9 mm 10 mps 747 mmHg 93%
    10:00 +16°C° 0.9 mm 11 mps 748 mmHg 92%
    11:00 +16°C° 0.6 mm 10 mps 748 mmHg 89%
    12:00 +16°C° 0.6 mm 10 mps 748 mmHg 86%
    13:00 +17°C° 0.6 mm 10 mps 748 mmHg 83%
    14:00 +17°C° 0.4 mm 9 mps 748 mmHg 81%
    15:00 +17°C° 0.4 mm 9 mps 748 mmHg 80%
    16:00 +17°C° 0.4 mm 8 mps 748 mmHg 79%
    17:00 +17°C° 0.5 mm 8 mps 748 mmHg 82%
    18:00 +16°C° 0.5 mm 8 mps 748 mmHg 85%
    19:00 +16°C° 0.5 mm 8 mps 748 mmHg 87%
    20:00 +15°C° 1.4 mm 8 mps 748 mmHg 90%
    21:00 +15°C° 1.4 mm 8 mps 748 mmHg 93%
    22:00 +15°C° 1.4 mm 8 mps 748 mmHg 96%
    23:00 +15°C° 1.7 mm 8 mps 748 mmHg 96%

    2 July, Sunday

    Time Temperature Precipitation Wind Pressure Humidity
    00:00 +15°C° 1.7 mm 8 mps 748 mmHg 96%
    01:00 +15°C° 1.7 mm 8 mps 747 mmHg 96%
    02:00 +15°C° 1.3 mm 7 mps 747 mmHg 96%
    03:00 +15°C° 1.3 mm 7 mps 747 mmHg 97%
    04:00 +15°C° 1.3 mm 6 mps 747 mmHg 97%
    05:00 +15°C° 1.3 mm 6 mps 747 mmHg 97%
    06:00 +15°C° 1.3 mm 5 mps 747 mmHg 97%
    07:00 +15°C° 1.3 mm 5 mps 747 mmHg 97%
    08:00 +15°C° 0.7 mm 5 mps 747 mmHg 97%
    09:00 +15°C° 0.7 mm 5 mps 748 mmHg 97%
    10:00 +15°C° 0.7 mm 5 mps 748 mmHg 97%
    11:00 +15°C° 0.4 mm 5 mps 748 mmHg 97%
    12:00 +15°C° 0.4 mm 5 mps 748 mmHg 96%
    13:00 +15°C° 0.4 mm 5 mps 748 mmHg 96%
    14:00 +15°C° 0.4 mm 6 mps 748 mmHg 96%
    15:00 +15°C° 0.4 mm 6 mps 748 mmHg 96%
    16:00 +15°C° 0.4 mm 6 mps 748 mmHg 95%
    17:00 +15°C° 0.4 mm 7 mps 748 mmHg 95%
    18:00 +15°C° 0.4 mm 7 mps 748 mmHg 95%
    19:00 +15°C° 0.4 mm 7 mps 748 mmHg 94%
    20:00 +15°C° 0.4 mm 7 mps 749 mmHg 94%
    21:00 +15°C° 0.4 mm 7 mps 749 mmHg 94%
    22:00 +15°C° 0.4 mm 7 mps 749 mmHg 93%
    23:00 +13°C° 0 mm 8 mps 749 mmHg 93%

    3 July, Monday

    Time Temperature Precipitation Wind Pressure Humidity
    00:00 +13°C° 0 mm 8 mps 749 mmHg 92%
    01:00 +13°C° 0 mm 8 mps 749 mmHg 92%
    02:00 +13°C° 0 mm 8 mps 749 mmHg 90%
    03:00 +13°C° 0 mm 9 mps 749 mmHg 89%
    04:00 +13°C° 0 mm 9 mps 749 mmHg 88%
    05:00 +13°C° 0.1 mm 9 mps 749 mmHg 86%
    06:00 +13°C° 0.1 mm 9 mps 749 mmHg 85%
    07:00 +13°C° 0.1 mm 9 mps 750 mmHg 83%
    08:00 +13°C° 0 mm 10 mps 750 mmHg 79%
    09:00 +14°C° 0 mm 10 mps 750 mmHg 74%
    10:00 +14°C° 0 mm 10 mps 751 mmHg 70%
    11:00 +14°C° 0 mm 10 mps 751 mmHg 69%
    12:00 +14°C° 0 mm 10 mps 751 mmHg 68%
    13:00 +14°C° 0 mm 10 mps 752 mmHg 67%
    14:00 +14°C° 0 mm 10 mps 751 mmHg 66%
    15:00 +14°C° 0 mm 10 mps 751 mmHg 66%
    16:00 +14°C° 0 mm 10 mps 751 mmHg 65%
    17:00 +14°C° 0.2 mm 10 mps 751 mmHg 67%
    18:00 +14°C° 0.2 mm 10 mps 751 mmHg 68%
    19:00 +13°C° 0.2 mm 10 mps 751 mmHg 70%
    20:00 +13°C° 0.2 mm 10 mps 750 mmHg 71%
    21:00 +13°C° 0.2 mm 10 mps 750 mmHg 72%
    22:00 +13°C° 0.2 mm 10 mps 750 mmHg 73%
    23:00 +12°C° 0.2 mm 10 mps 750 mmHg 77%

    4 July, Tuesday

    Time Temperature Precipitation Wind Pressure Humidity
    00:00 +12°C° 0.2 mm 10 mps 750 mmHg 80%
    01:00 +12°C° 0.2 mm 10 mps 750 mmHg 84%
    02:00 +12°C° 0 mm 10 mps 749 mmHg 82%
    03:00 +12°C° 0 mm 10 mps 749 mmHg 80%
    04:00 +12°C° 0 mm 10 mps 749 mmHg 79%
    05:00 +12°C° 0.2 mm 10 mps 749 mmHg 80%
    06:00 +12°C° 0.2 mm 10 mps 749 mmHg 81%
    07:00 +13°C° 0.2 mm 10 mps 749 mmHg 81%
    08:00 +13°C° 0.3 mm 10 mps 749 mmHg 82%
    09:00 +13°C° 0.3 mm 10 mps 749 mmHg 83%
    10:00 +13°C° 0.3 mm 10 mps 749 mmHg 83%
    11:00 +13°C° 0.3 mm 10 mps 750 mmHg 83%
    12:00 +13°C° 0.3 mm 9 mps 750 mmHg 83%
    13:00 +13°C° 0.3 mm 9 mps 750 mmHg 83%
    14:00 +13°C° 0.2 mm 8 mps 750 mmHg 85%
    15:00 +13°C° 0.2 mm 8 mps 750 mmHg 86%
    16:00 +14°C° 0.2 mm 7 mps 751 mmHg 87%
    17:00 +14°C° 0.2 mm 7 mps 751 mmHg 89%
    18:00 +14°C° 0.2 mm 6 mps 751 mmHg 90%
    19:00 +14°C° 0.2 mm 6 mps 751 mmHg 91%
    20:00 +14°C° 0.1 mm 6 mps 751 mmHg 92%
    21:00 +13°C° 0.1 mm 6 mps 751 mmHg 93%
    22:00 +13°C° 0.1 mm 6 mps 752 mmHg 93%
    23:00 +13°C° 0.3 mm 6 mps 752 mmHg 94%
    Show more